This demonstration page uses our WeatherBlox Daily Observations layout. Learn more.

Hourly Observations for February 9, 2020

Temp ( °F °C ) Dew Point ( °F °C ) Humidity (%) Winds ( mph kmh ) Pressure ( in mb ) Visibility ( mi km ) Precip ( " mm )
12:15 am 00:15 Clear 36 2.2 30 -1 80 80 S 9 15 29.81 1010 10 16.0934 0 0
12:35 am 00:35 Clear 35 1.8 30 -1 82 82 S 9 15 29.82 1010 10 16.0934 0 0
12:55 am 00:55 Clear 35 1.5 30 -1 84 84 S 8 13 29.83 1010 10 16.0934 0 0
1:15 am 01:15 Clear 34 1.2 30 -1 85 85 S 8 13 29.82 1010 10 16.0934 0 0
1:35 am 01:35 Clear 35 1.9 31 -0.8 83 83 S 10 17 29.82 1010 10 16.0934 0 0
1:55 am 01:55 Clear 34 0.9 30 -1.3 85 85 SSE 8 13 29.81 1009 10 16.0934 0 0
2:15 am 02:15 Clear 35 1.6 30 -0.9 84 84 SSE 8 13 29.79 1009 10 16.0934 0 0
2:35 am 02:35 Clear 33 0.7 30 -1.1 88 88 S 5 7 29.81 1009 10 16.0934 0 0
2:55 am 02:55 Clear 34 1.1 30 -0.9 87 87 SSW 3 6 29.82 1010 10 16.0934 0 0
3:15 am 03:15 Clear 33 0.4 30 -1.2 89 89 SSW 5 7 29.83 1010 10 16.0934 0 0
3:35 am 03:35 Clear 33 0.8 31 -0.7 90 90 SSW 6 9 29.84 1010 10 16.0934 0 0
3:55 am 03:55 Clear 33 0.5 29 -1.6 86 86 NW 9 15 29.86 1011 10 16.0934 0 0
4:15 am 04:15 Clear 32 -0.1 29 -1.9 88 88 NW 7 11 29.88 1012 10 16.0934 0 0
4:35 am 04:35 Clear 31 -0.5 29 -1.8 91 91 NW 7 11 29.88 1012 10 16.0934 0 0
4:55 am 04:55 Clear 31 -0.5 29 -1.9 90 90 NW 10 17 29.9 1012 10 16.0934 0 0
5:15 am 05:15 Clear 35 1.4 30 -1.2 83 83 NNW 13 20 29.89 1012 10 16.0934 0 0
5:35 am 05:35 Clear 34 0.9 29 -1.5 84 84 NNW 12 19 29.92 1013 10 16.0934 0 0
5:55 am 05:55 Clear 33 0.5 29 -1.5 87 87 N 12 19 29.92 1013 10 16.0934 0 0
6:15 am 06:15 Partly Cloudy 34 0.9 30 -1 87 87 NNW 10 17 29.93 1013 10 16.0934 0 0
6:35 am 06:35 Mostly Cloudy 34 1.2 30 -1.1 85 85 N 20 31 29.93 1014 10 16.0934 0 0
6:55 am 06:55 Mostly Cloudy 33 0.8 28 -2.2 81 81 N 20 31 29.96 1014 10 16.0934 0 0
7:15 am 07:15 Cloudy 32 0 27 -3 80 80 N 25 41 29.98 1015 10 16.0934 0 0
7:35 am 07:35 Cloudy 31 -0.3 26 -3.4 80 80 NNW 22 35 30.01 1016 10 16.0934 0 0
7:55 am 07:55 Cloudy 31 -0.5 25 -3.7 79 79 N 21 33 30.04 1017 10 16.0934 0 0
8:15 am 08:15 Cloudy 31 -0.6 25 -4 78 78 N 22 35 30.06 1018 10 16.0934 0 0
8:35 am 08:35 Cloudy 31 -0.5 25 -4.1 77 77 N 21 33 30.07 1018 10 16.0934 0 0
8:55 am 08:55 Cloudy 31 -0.8 24 -4.6 76 76 N 22 35 30.08 1019 10 16.0934 0 0
9:15 am 09:15 Cloudy 31 -0.7 24 -4.5 76 76 N 25 41 30.1 1019 10 16.0934 0 0
9:35 am 09:35 Cloudy 31 -0.5 24 -4.5 75 75 N 25 41 30.11 1020 10 16.0934 0 0
9:55 am 09:55 Cloudy 31 -0.3 24 -4.5 74 74 N 25 41 30.13 1020 10 16.0934 0 0
10:15 am 10:15 Cloudy 32 -0.2 24 -4.6 73 73 N 29 46 30.15 1021 10 16.0934 0 0
10:35 am 10:35 Cloudy 32 -0.2 23 -5 70 70 N 33 54 30.17 1022 10 16.0934 0 0
10:55 am 10:55 Cloudy 32 -0.2 23 -5.1 70 70 N 30 48 30.19 1022 10 16.0934 0 0
11:15 am 11:15 Cloudy 32 0 23 -5 69 69 N 30 48 30.18 1022 10 16.0934 0 0
11:35 am 11:35 Cloudy 32 0 23 -5.1 69 69 N 28 44 30.19 1022 10 16.0934 0 0
11:55 am 11:55 Cloudy 32 0 23 -5.1 69 69 N 28 44 30.2 1023 10 16.0934 0 0
12:15 pm 12:15 Cloudy 32 0.1 23 -5.1 68 68 N 28 44 30.21 1023 10 16.0934 0 0
12:35 pm 12:35 Cloudy 33 0.4 22 -5.3 66 66 N 26 43 30.21 1023 10 16.0934 0 0
12:55 pm 12:55 Cloudy 33 0.3 22 -5.5 65 65 N 26 43 30.21 1023 10 16.0934 0 0
1:15 pm 13:15 Cloudy 33 0.5 22 -5.5 64 64 N 26 43 30.21 1023 10 16.0934 0 0
1:35 pm 13:35 Mostly Cloudy 33 0.7 22 -5.6 63 63 N 25 41 30.21 1023 10 16.0934 0 0
1:55 pm 13:55 Mostly Cloudy 34 1 22 -5.6 62 62 N 25 41 30.2 1023 10 16.0934 0 0
2:15 pm 14:15 Mostly Cloudy 34 1.2 22 -5.7 60 60 N 22 35 30.19 1022 10 16.0934 0 0
2:35 pm 14:35 Mostly Cloudy 34 1.1 21 -6 60 60 N 18 30 30.19 1023 10 16.0934 0 0
2:55 pm 14:55 Partly Cloudy 34 0.9 21 -6.1 60 60 N 18 30 30.21 1023 10 16.0934 0 0
3:15 pm 15:15 Partly Cloudy 33 0.8 21 -6.2 60 60 N 20 31 30.22 1023 10 16.0934 0 0
3:35 pm 15:35 Mostly Cloudy 34 1 21 -6.3 59 59 N 18 30 30.22 1023 10 16.0934 0 0
3:55 pm 15:55 Partly Cloudy 33 0.8 20 -6.5 59 59 N 17 28 30.22 1023 10 16.0934 0 0
4:15 pm 16:15 Mostly Cloudy 34 1 20 -6.4 58 58 N 18 30 30.22 1023 10 16.0934 0 0
4:35 pm 16:35 Partly Cloudy 34 1 20 -6.6 57 57 N 13 20 30.22 1023 10 16.0934 0 0
4:55 pm 16:55 Partly Cloudy 33 0.6 20 -6.6 59 59 N 12 19 30.23 1024 10 16.0934 0 0
5:15 pm 17:15 Partly Cloudy 33 0.3 20 -6.5 61 61 N 10 17 30.24 1024 10 16.0934 0 0
5:35 pm 17:35 Partly Cloudy 32 -0.1 20 -6.5 62 62 N 10 17 30.24 1024 10 16.0934 0 0
5:55 pm 17:55 Sunny 31 -0.7 20 -6.7 64 64 N 8 13 30.25 1024 10 16.0934 0 0
6:15 pm 18:15 Clear 29 -1.4 20 -6.7 68 68 N 7 11 30.27 1025 10 16.0934 0 0
6:35 pm 18:35 Clear 28 -2 20 -6.7 71 71 N 5 7 30.28 1026 10 16.0934 0 0
6:55 pm 18:55 Partly Cloudy 28 -2.2 20 -6.8 71 71 N 5 7 30.29 1026 10 16.0934 0 0
7:15 pm 19:15 Clear 27 -2.9 20 -6.7 75 75 N 5 7 30.3 1026 10 16.0934 0 0
7:35 pm 19:35 Clear 26 -3.1 19 -7.1 74 74 N 3 6 30.31 1026 10 16.0934 0 0
7:55 pm 19:55 Clear 26 -3.2 20 -6.8 76 76 Calm 30.31 1026 10 16.0934 0 0
8:15 pm 20:15 Partly Cloudy 25 -4 20 -6.7 82 82 Calm 30.3 1026 10 16.0934 0 0
8:35 pm 20:35 Partly Cloudy 25 -3.8 20 -6.7 81 81 Calm 30.3 1026 10 16.0934 0 0
8:55 pm 20:55 Clear 24 -4.2 20 -6.4 85 85 Calm 30.31 1026 10 16.0934 0 0
9:15 pm 21:15 Clear 23 -4.9 19 -7.1 85 85 Calm 30.3 1026 10 16.0934 0 0
9:35 pm 21:35 Partly Cloudy 25 -4 20 -6.4 84 84 Calm 30.29 1026 10 16.0934 0 0
9:55 pm 21:55 Clear 23 -4.9 19 -7.2 84 84 Calm 30.3 1026 10 16.0934 0 0
10:15 pm 22:15 Clear 23 -5 20 -6.7 88 88 Calm 30.3 1026 10 16.0934 0 0
10:35 pm 22:35 Clear 23 -5 20 -6.9 87 87 Calm 30.29 1026 10 16.0934 0 0
10:55 pm 22:55 Clear 25 -3.9 20 -6.5 82 82 Calm 30.28 1026 10 16.0934 0 0
11:15 pm 23:15 Partly Cloudy 24 -4.2 21 -6.3 85 85 Calm 30.29 1026 10 16.0934 0 0
11:35 pm 23:35 Partly Cloudy 24 -4.5 20 -6.5 86 86 Calm 30.29 1026 10 16.0934 0 0
11:55 pm 23:55 Mostly Cloudy 25 -4 21 -6.3 84 84 SSW 3 6 30.27 1025 10 16.0934 0 0

Powered by AerisWeather